sat.trackr.live / text

‹ back to catalog

STARLINK-35667

NORAD 66400 · 2025-257W

PAYLOAD ACTIVE UNKNOWN

§ Identity

Operator
Country
US
Launch date
2025-11-09
Launch site
AFETR
Launch vehicle
Mass (kg)
RCS (m²)

Purposes: comms

External: N2YO · Heavens-Above · Gunter

§ Orbital elements

Epoch: 2026-05-24T21:49:35.120064Z

Period
93.85 min
Inclination
53.1574°
Eccentricity
0.0001034
Mean motion
15.34403081 rev/d
Perigee alt
462.0 km
Apogee alt
463.4 km
Semi-major
6,840.8 km
B*
5.3011e-4
RAAN
222.2371°
Arg perigee
71.7680°
Mean anomaly
288.3435°
Rev number
3,141

§ Raw data

STARLINK-356671 66400U 25257W   26144.90943426  .00017578  00000+0  53011-3 0  99912 66400  53.1574 222.2371 0001034  71.7680 288.3435 15.34403081 31410

JSON: /api/v1/satellites/66400 · /tle

For live sub-satellite position, see the globe view (requires WebGL).

§ Visibility from observer

Set your observer location to see the next 7 days of passes ≥ 10°. The values pass through the URL so the page stays shareable.

No JS? Fill the form by hand. The geolocation button needs JavaScript.